Doha, Qatar

10:23 AM AST on December 04, 2016 (GMT +0300)
Doha International

Weather History for OTBD - September, 2013

Change the Weather History Date:

Monday, September 23, 2013

  Actual Average Record
Temperature  
Mean Temperature 94 °F -  
Max Temperature 104 °F 99 °F 107 °F (1997)
Min Temperature 84 °F 82 °F 78 °F (1997)
Cooling Degree Days 29    
Growing Degree Days 44 (Base 50)    
Moisture  
Dew Point 69 °F    
Average Humidity 43    
Maximum Humidity 75    
Minimum Humidity 22    
Precipitation  
Precipitation 0.00 in - - ()
Sea Level Pressure  
Sea Level Pressure 29.65 in    
Wind  
Wind Speed 7 mph ()    
Max Wind Speed 15 mph    
Max Gust Speed -    
Visibility 6.5 miles    
Events      
Averages and records for this station are not official NWS values.
T = Trace of Precipitation, MM = Missing Value Source: Averaged Metar Reports

Daily Weather History Graph

Daily Weather History Graph

Search for Another Location

Airport or City:

Trip Planner

Search our weather history database for the weather conditions in past years. The results will help you decide how hot, cold, wet, or windy it might be!

Date:

Astronomy

Sep. 23, 2013 Rise Set
Actual Time 5:22 AM AST 5:29 PM AST
Civil Twilight 4:59 AM AST 5:52 PM AST
Nautical Twilight 4:33 AM AST 6:18 PM AST
Astronomical Twilight 4:06 AM AST 6:45 PM AST
Moon 8:11 PM AST (9/23) 8:52 AM AST (9/23)
Length of Visible Light 12h 52m
Length of Day
12h 06m
Waning Gibbous, 84% of the Moon is Illuminated
Sep 23
Waning Gibbous
Sep 27
Last Quarter
Oct 5
New
Oct 12
First Quarter
Oct 19
Full

Hourly Weather History & Observations

Time (AST) Temp. Heat Index Dew Point Humidity Pressure Visibility Wind Dir Wind Speed Gust Speed Precip Events Conditions
12:00 AM 89.6 °F 104.7 °F 78.8 °F 70% 29.62 in - Variable 2.3 mph - N/A   Clear
1:00 AM 89.6 °F 108.2 °F 80.6 °F 75% 29.59 in - Variable 1.2 mph - N/A   Clear
2:00 AM 89.6 °F 94.7 °F 69.8 °F 52% 29.59 in - South 3.5 mph - N/A   Clear
3:00 AM 87 °F - 61 °F 32% 29.62 in 6 mi 2.3 mph - -  
3:00 AM 87.8 °F 87.6 °F 60.8 °F 40% 29.59 in - Variable 2.3 mph - N/A   Clear
3:30 AM 86.0 °F 86.1 °F 60.8 °F 43% 29.62 in - Calm Calm - N/A   Clear
4:00 AM 89.6 °F 93.4 °F 68.0 °F 49% 29.62 in - NNW 4.6 mph - N/A   Clear
4:30 AM 89.6 °F 98.2 °F 73.4 °F 59% 29.62 in - NW 4.6 mph - N/A   Clear
5:00 AM 87.8 °F 97.6 °F 75.2 °F 66% 29.62 in - WNW 4.6 mph - N/A   Clear
6:00 AM 89.6 °F 99.8 °F 75.2 °F 62% 29.65 in - NW 5.8 mph - N/A   Clear
6:30 AM 91.4 °F 100.1 °F 73.4 °F 55% 29.65 in - WNW 9.2 mph - N/A   Clear
7:00 AM 93.2 °F 100.5 °F 71.6 °F 49% 29.65 in - NW 10.4 mph - N/A   Clear
7:30 AM 95.0 °F 99.5 °F 68.0 °F 41% 29.68 in - NW 9.2 mph - N/A   Clear
8:00 AM 96.8 °F 98.0 °F 62.6 °F 32% 29.68 in - NW 11.5 mph - N/A   Clear
8:30 AM 96.8 °F 99.0 °F 64.4 °F 34% 29.68 in - NW 10.4 mph - N/A   Clear
9:00 AM 99 °F - 65 °F 23% 29.70 in 6 mi NW 9.2 mph - -  
9:00 AM 98.6 °F 101.0 °F 64.4 °F 32% 29.68 in - NW 9.2 mph - N/A   Clear
9:30 AM 100.4 °F 103.6 °F 64.4 °F 31% 29.68 in - North 11.5 mph - N/A   Clear
10:00 AM 102.2 °F 106.9 °F 66.2 °F 31% 29.68 in - NNW 12.7 mph - N/A   Clear
10:30 AM 102.2 °F 105.5 °F 64.4 °F 29% 29.68 in - North 15.0 mph - N/A   Clear
11:00 AM 104.0 °F 106.6 °F 62.6 °F 26% 29.68 in - North 15.0 mph - N/A   Clear
11:30 AM 104.0 °F 106.6 °F 62.6 °F 26% 29.65 in - NNE 12.7 mph - N/A   Clear
12:00 PM 102.2 °F 104.2 °F 62.6 °F 27% 29.65 in - North 15.0 mph - N/A   Clear
12:30 PM 104.0 °F 105.3 °F 60.8 °F 24% 29.65 in - North 15.0 mph - N/A   Clear
1:00 PM 102.2 °F 105.5 °F 64.4 °F 29% 29.62 in - North 15.0 mph - N/A   Clear
1:30 PM 102.2 °F 106.9 °F 66.2 °F 31% 29.62 in - North 13.8 mph - N/A   Clear
2:00 PM 102.2 °F 106.9 °F 66.2 °F 31% 29.62 in - North 13.8 mph - N/A   Clear
2:30 PM 102.2 °F 105.5 °F 64.4 °F 29% 29.62 in - North 13.8 mph - N/A   Clear
3:00 PM 101 °F - 65 °F 22% 29.63 in 7 mi North 13.8 mph - -  
3:00 PM 100.4 °F 103.6 °F 64.4 °F 31% 29.62 in - North 13.8 mph - N/A   Clear
3:30 PM 100.4 °F 103.6 °F 64.4 °F 31% 29.62 in - NNE 13.8 mph - N/A   Clear
4:00 PM 100.4 °F 104.9 °F 66.2 °F 33% 29.62 in - North 12.7 mph - N/A   Clear
4:30 PM 98.6 °F 105.5 °F 69.8 °F 39% 29.62 in - NNE 10.4 mph - N/A   Clear
5:00 PM 96.8 °F 107.3 °F 73.4 °F 47% 29.62 in - North 10.4 mph - N/A   Clear
6:00 PM 95.0 °F 109.7 °F 77.0 °F 56% 29.62 in - North 11.5 mph - N/A   Clear
7:00 PM 95.0 °F 103.2 °F 71.6 °F 47% 29.65 in - NNW 13.8 mph - N/A   Clear
7:30 PM 93.2 °F 105.0 °F 75.2 °F 56% 29.65 in - NNW 13.8 mph - N/A   Clear
8:00 PM 93.2 °F 105.0 °F 75.2 °F 56% 29.65 in - NNW 12.7 mph - N/A   Clear
8:30 PM 93.2 °F 105.0 °F 75.2 °F 56% 29.68 in - NNW 10.4 mph - N/A   Clear
9:00 PM 91 °F - 74 °F 48% 29.69 in 7 mi NNW 11.5 mph - -  
9:00 PM 91.4 °F 100.1 °F 73.4 °F 55% 29.68 in - NNW 11.5 mph - N/A   Clear
9:30 PM 91.4 °F 100.1 °F 73.4 °F 55% 29.68 in - NNW 11.5 mph - N/A   Clear
10:00 PM 91.4 °F 100.1 °F 73.4 °F 55% 29.68 in - North 10.4 mph - N/A   Clear
10:30 PM 91.4 °F 98.4 °F 71.6 °F 52% 29.68 in - North 9.2 mph - N/A   Clear
11:00 PM 91.4 °F 100.1 °F 73.4 °F 55% 29.68 in - NNW 10.4 mph - N/A   Clear
11:30 PM 91.4 °F 100.1 °F 73.4 °F 55% 29.65 in - NNW 9.2 mph - N/A   Clear